This demonstration page uses our WeatherBlox Daily Observations layout. Learn more.

Left ArrowRight Arrow

30.21309, -93.2044

Hourly Observations for July 11, 2019

Temp ( °F °C ) Dew Point ( °F °C ) Humidity (%) Winds ( mph kmh ) Pressure ( in mb ) Visibility ( mi km ) Precip ( " mm )
12:15 am 00:15 Clear 81 27 77 25 89 89 N 8 13 29.92 1013 10 16 0.00 0.00
12:35 am 00:35 Clear 81 27.3 78 25.3 89 89 N 7 11 29.92 1013 10 16 0.00 0.00
12:55 am 00:55 Clear 81 27.2 77 25.2 89 89 N 8 13 29.92 1013 10 16 0.00 0.00
1:15 am 01:15 Clear 80 26.8 77 25.1 90 90 N 8 13 29.92 1013 10 16 0.00 0.00
1:35 am 01:35 Clear 81 27 77 25.2 90 90 NNE 7 11 29.92 1013 10 16 0.00 0.00
1:55 am 01:55 Clear 80 26.6 77 25.2 92 92 N 7 11 29.92 1013 10 16 0.00 0.00
2:15 am 02:15 Clear 81 27.4 77 25.2 88 88 N 7 11 29.91 1013 10 16 0.00 0.00
2:35 am 02:35 Clear 80 26.9 78 25.3 91 91 N 7 11 29.90 1013 10 16 0.00 0.00
2:55 am 02:55 Partly Cloudy 80 26.9 78 25.4 92 92 N 7 11 29.89 1012 10 16 0.00 0.00
3:15 am 03:15 Clear 81 27.3 78 25.6 90 90 N 7 11 29.87 1011 10 16 0.00 0.00
3:35 am 03:35 Clear 82 27.7 78 25.7 89 89 Calm 29.86 1011 10 16 0.00 0.00
3:55 am 03:55 Clear 82 27.7 78 25.6 88 88 N 7 11 29.87 1011 10 16 0.00 0.00
4:15 am 04:15 Clear 80 26.7 78 25.6 94 94 NNE 5 7 29.86 1011 10 16 0.00 0.00
4:35 am 04:35 Clear 80 26.8 78 25.6 93 93 N 10 17 29.86 1011 10 16 0.00 0.00
4:55 am 04:55 Clear 80 26.5 78 25.5 94 94 N 6 9 29.85 1011 10 16 0.00 0.00
5:15 am 05:15 Clear 80 26.5 78 25.6 95 95 N 8 13 29.86 1011 10 16 0.00 0.00
5:35 am 05:35 Clear 80 26.4 78 25.5 95 95 N 10 17 29.87 1011 10 16 0.00 0.00
6:00 am 06:00 Mostly Clear 79 26 77 25 94 94 N 12 19 29.87 1011 10 16 0.00 0.00
6:52 am 06:52 Partly Cloudy 79 26 77 25 94 94 N 12 19 29.90 1013 10 16 0.00 0.00
7:45 am 07:45 Mostly Sunny 79 26 77 25 94 94 N 6 9 29.90 1013 10 16 0.00 0.00
8:55 am 08:55 Mostly Sunny 82 28 77 25 84 84 N 8 13 29.90 1013 10 16 0.00 0.00
9:55 am 09:55 Mostly Sunny 86 30 77 25 75 75 N 8 13 29.89 1012 10 16 0.00 0.00
10:55 am 10:55 Mostly Sunny 88 31 77 25 70 70 NNE 8 13 29.89 1012 10 16 0.00 0.00
11:55 am 11:55 Partly Cloudy 90 32 77 25 67 67 N 13 20 29.88 1012 10 16 0.00 0.00
12:55 pm 12:55 Partly Cloudy 90 32 77 25 67 67 N 13 20 29.88 1012 10 16 0.00 0.00
1:55 pm 13:55 Partly Cloudy 75 24 77 25 100 100 NNE 13 20 29.84 1010 10 16 0.00 0.00
2:55 pm 14:55 Partly Cloudy 75 24 77 25 100 100 NNE 13 20 29.84 1010 10 16 0.00 0.00
3:45 pm 15:45 Mostly Cloudy 81 27 79 26 94 94 E 5 7 29.82 1010 10 16 0.00 0.00
4:55 pm 16:55 Mostly Cloudy 90 32 79 26 71 71 VRB 7 11 29.78 1008 10 16 0.00 0.00
5:55 pm 17:55 Partly Cloudy 91 33 77 25 63 63 NNE 14 22 29.77 1008 10 16 0.00 0.00
6:45 pm 18:45 Partly Cloudy 90 32 77 25 67 67 NNE 13 20 29.77 1008 10 16 0.00 0.00
9:45 pm 21:45 Mostly Clear 84 29 75 24 74 74 NNE 9 15 29.79 1009 10 16 0.00 0.00
10:15 pm 22:15 Clear 84 29 76 24.2 75 75 NNE 8 13 29.79 1009 10 16 0.00 0.00
10:35 pm 22:35 Clear 84 28.8 75 24 75 75 NNE 7 11 29.80 1009 10 16 0.00 0.00
10:55 pm 22:55 Clear 83 28.1 76 24.2 79 79 NE 5 7 29.81 1009 7 11 0.00 0.00
11:15 pm 23:15 Clear 83 28.1 75 24.1 79 79 NE 5 7 29.80 1009 10 16 0.00 0.00
11:35 pm 23:35 Clear 82 27.6 76 24.2 82 82 NNE 6 9 29.79 1009 10 16 0.00 0.00
11:55 pm 23:55 Clear 82 27.5 75 24.1 82 82 Calm 29.80 1009 10 16 0.00 0.00

Powered by AerisWeather